User: anonymous   Login
Location: Owatonna
(44.0840°N, 93.2260°W)
Time: 09:13:36
(UTC-06:00)
Language:

Cosmos 839 Rocket - Orbit

View from above orbital plane
View from above orbital plane
View from above satellite
View from above satellite

Ground track
Ground track

The orbit data is extracted from the following two-line orbital elements,

1 09013U 76067B   14354.26295519 -.00000034  00000-0  68920-4 0  5684
2 09013 065.8679 333.1074 0706690 069.2594 015.9475 12.35310902734258
Epoch (UTC): 20 December 2014 06:18:39
Eccentricity: 0.0706690
inclination: 65.8679°
perigee height: 968 km
apogee height: 2085 km
right ascension of ascending node: 333.1074°
argument of perigee: 69.2594°
revolutions per day: 12.35310902
mean anomaly at epoch: 15.9475°
orbit number at epoch: 73425

The dashed part of the orbit path shows where the satellite is in the earth's shadow,  

DLR